Location: McMath-Hulbert Observatory
(42.6964°N, 83.3187°W)
Time: 12:16:51
(UTC-04:00)

Daily predictions for brighter satellites

Satellite Brightness Start Highest point End
(mag) Time Altitude Azimuth Time Altitude Azimuth Time Altitude Azimuth
Cosmos 1934 Rocket 4.5 20:06:43 10° SSE 20:12:16 37° E 20:17:47 10° NNE
Cosmos 1898 Rocket 3.6 20:08:47 10° S 20:13:59 58° ESE 20:19:10 10° NNE
Cosmos 1953 4.3 20:16:20 10° E 20:17:13 11° E 20:18:07 10° ENE
FENGYUN 3A 3.7 20:13:53 10° SSE 20:19:12 62° ENE 20:24:32 10° N
Meteor 1-24 Rocket 3.9 20:16:32 10° N 20:21:48 47° ENE 20:27:12 10° SSE
H-2A R/B 3.3 20:19:28 10° SE 20:23:05 39° ENE 20:26:47 10° N
Cosmos 2263 Rocket 4.4 20:19:05 10° WSW 20:23:56 29° NW 20:28:48 10° N
Abrixas 3.9 20:21:38 10° NW 20:24:08 26° N 20:26:36 10° ENE
USA 186 3.1 20:24:57 10° E 20:25:41 12° ENE 20:26:34 10° NE
Cosmos 1707 2.8 20:23:14 10° N 20:27:10 89° WSW 20:31:03 10° S
Meteor 2-5 Rocket 3.8 20:22:24 10° N 20:28:09 89° E 20:33:57 10° S
Cosmos 1821 Rocket 4.0 20:25:39 10° S 20:31:58 69° E 20:38:18 10° NNE
Geosat 4.4 20:27:53 10° NE 20:32:37 40° ESE 20:37:19 10° S
Cosmos 2082 Rocket 3.6 20:31:51 10° N 20:36:09 21° NE 20:39:45 12° E
Lacrosse 5 rocket 3.6 20:34:24 10° NNW 20:36:14 13° NNE 20:38:02 10° NE
ALOS 2.3 20:33:17 10° SSE 20:37:58 86° WSW 20:42:40 10° NNW
HJ-1C 3.4 20:35:01 10° SSE 20:38:25 90° SSW 20:41:51 10° NNW
Cosmos 858 Rocket 4.5 20:33:23 10° SSW 20:38:39 83° ESE 20:43:58 10° NNE
Cosmos 1535 Rocket 4.5 20:32:45 10° S 20:38:59 76° E 20:45:20 10° N
CZ-3B DEB 3.0 20:27:44 10° SW 20:40:01 74° SE 20:45:28 10° NE
GP-B 4.4 20:37:25 10° ESE 20:40:35 20° ENE 20:43:50 10° NNE
Cosmos 1812 Rocket 3.5 20:36:43 10° S 20:41:07 68° E 20:45:29 10° NNE
Meteor 1-4 Rocket 4.1 20:40:40 15° ESE 20:41:24 16° E 20:43:34 10° NE
Resurs 01 Rocket 1.6 20:37:12 10° SSE 20:41:34 68° ENE 20:45:59 10° N
Cosmos 1766 3.4 20:38:28 10° S 20:42:13 50° E 20:46:00 10° NNE
RESURS DK-1 2.6 20:38:19 10° NNW 20:42:21 49° ENE 20:46:08 11° SE
CZ-4B DEB 4.3 20:41:48 16° E 20:42:44 18° ENE 20:44:55 10° NNE
Cosmos 1544 4.2 20:40:13 10° SE 20:43:09 23° E 20:46:06 10° NE
COSMOS 2406 3.8 20:37:56 10° NNW 20:43:38 63° WSW 20:49:15 10° S
SL-27 R/B 2.6 20:43:24 10° N 20:46:55 56° ENE 20:50:27 10° SSE
Cosmos 1937 Rocket 3.5 20:41:41 10° SSW 20:46:55 82° ESE 20:52:14 10° NNE
BREEZE-M DEB (TANK) 4.2 20:45:07 10° S 20:47:58 21° ESE 20:53:55 10° ENE
Cosmos 1605 Rocket 4.1 20:43:54 10° SSE 20:49:54 52° E 20:56:02 10° NNE
Meteor 1-29 4.1 20:48:00 10° NE 20:50:48 22° E 20:52:31 16° SE
Lacrosse 5 2.1 20:47:16 10° SSW 20:52:08 50° SE 20:57:02 10° NE
Cosmos 2298 Rocket 4.4 20:49:16 10° SSW 20:54:32 71° WNW 20:59:52 10° NNE
Cosmos 1076 Rocket 4.2 20:53:51 10° NNE 20:57:41 31° ENE 20:59:48 20° ESE
SeaSat 1 3.6 20:53:37 10° S 20:58:19 44° WSW 21:03:02 10° NW
Cosmos 1844 3.9 20:52:52 10° SSW 20:58:39 82° WNW 21:04:29 10° NNE
Cosmos 2123 Rocket 4.0 20:55:26 10° N 21:01:48 81° E 21:08:05 10° S
Spot 1 4.3 21:00:20 10° SSE 21:04:50 62° ENE 21:09:38 10° N
CZ-2D R/B 3.4 21:08:31 10° S 21:12:22 73° W 21:16:15 10° NNW
Cosmos 2344 3.7 21:04:58 10° SW 21:12:39 90° NW 21:21:21 10° NE
Helios 1B rocket 2.4 21:11:17 10° NNE 21:15:25 62° ESE 21:19:29 10° S
Cosmos 1867 4.2 21:12:47 10° S 21:17:32 31° ESE 21:22:18 10° NE
Helios 1A 2.8 21:14:06 14° SSE 21:17:39 81° ENE 21:21:52 10° NNW
Cosmos 1674 3.4 21:15:11 10° N 21:18:33 33° ENE 21:18:33 33° ENE
Cosmos 1805 3.1 21:15:05 10° S 21:18:57 70° E 21:22:52 10° NNE
Cosmos-2242 3.9 21:22:01 28° ENE 21:22:01 28° ENE 21:24:59 10° NNE
Lacrosse 4 Rocket 3.3 21:23:35 10° WSW 21:27:10 29° NW 21:30:46 10° N
Cosmos 1340 Rocket 4.1 21:24:26 10° NNE 21:27:12 26° NE 21:27:12 26° NE
Cosmos 1470 4.3 21:33:41 23° NE 21:33:41 23° NE 21:35:34 10° NNE
Cosmos 372 Rocket 4.2 21:29:37 10° S 21:34:26 44° ESE 21:39:18 10° NNE
Cosmos 1447 Rocket 4.4 21:35:13 10° N 21:41:23 89° W 21:46:45 14° S
Cosmos 1758 3.5 21:38:49 10° SSW 21:42:46 71° W 21:46:46 10° N
USA 215 3.1 21:36:46 10° NE 21:43:20 78° SE 21:49:52 10° SW
YAOGAN 6 3.8 21:46:14 32° NNE 21:46:14 32° NNE 21:48:37 10° N
H-2A R/B 3.9 21:45:55 17° NE 21:45:55 17° NE 21:48:35 10° NNE
SJ-11-01 4.2 21:44:06 35° SSE 21:46:05 89° WSW 21:50:51 10° NNW
Cosmos 158 Rocket 3.9 21:43:02 10° NNW 21:48:06 63° ENE 21:49:00 54° ESE
Cosmos 1459 Rocket 4.0 21:45:22 23° SSE 21:49:19 60° E 21:55:24 10° NNE
Tiangong 1 3.0 21:47:13 10° W 21:48:48 22° WSW 21:48:48 22° WSW
Cosmos 1939 Rocket 2.8 21:49:27 61° S 21:50:09 85° WSW 21:54:20 10° NNW
CZ-3 Stage 3 3.9 21:19:37 10° WSW 21:51:15 46° SSW 21:54:41 32° SSE
Cosmos 2173 Rocket 3.9 21:48:07 28° SSE 21:51:21 61° E 21:57:30 10° NNE
Cosmos 2278 Rocket 2.9 21:45:52 10° SW 21:51:26 55° WNW 21:57:02 10° NNE
Cosmos 1833 Rocket 2.6 21:45:52 10° NNW 21:51:29 66° ENE 21:52:40 52° ESE
Cosmos 1408 Rocket 3.5 21:47:56 10° N 21:52:25 90° WNW 21:53:15 59° S
Cosmos 1953 2.9 21:49:05 10° SSW 21:53:05 59° W 21:57:08 10° N
USA 186 4.3 21:56:32 13° W 21:56:32 13° W 21:57:35 10° WNW
Envisat 3.2 21:54:30 27° S 21:57:13 67° W 22:02:18 10° NNW
Cosmos 2297 3.6 21:57:55 10° SSW 22:03:38 89° ESE 22:09:25 10° NNE
Cosmos 1125 Rocket 3.6 21:59:11 10° SSW 22:04:22 74° WNW 22:09:36 10° NNE
MetOp-B 4.3 22:06:49 53° ENE 22:06:49 53° ENE 22:11:47 10° N
Cosmos 1048 Rocket 4.0 22:03:07 10° NNW 22:08:14 72° WSW 22:09:10 57° SSW
BREEZE-M DEB (TANK) 4.1 22:11:38 10° W 22:15:12 66° NNW 22:27:40 10° ENE
USA 267 3.5 22:14:41 47° ENE 22:16:06 56° NNE 22:22:27 10° NW
Lacrosse 5 rocket 2.9 22:12:51 10° NNW 22:15:09 27° N 22:15:09 27° N
Cosmos 2082 Rocket 2.4 22:15:06 10° NNW 22:20:46 67° WSW 22:21:38 58° SSW
Cosmos 2016 Rocket 3.8 22:22:03 73° SE 22:22:29 77° E 22:28:40 10° N
ERS-1 Rocket 3.1 22:23:31 68° WSW 22:23:44 69° WSW 22:28:47 10° NNW
Cosmos 1818 4.2 22:20:07 10° NW 22:25:21 49° WSW 22:26:00 46° SW
Cosmos 1725 Rocket 4.5 22:29:56 46° NE 22:29:56 46° NE 22:34:29 10° NNE
Cosmos 2251 Rocket 4.2 22:28:24 10° NNW 22:32:18 45° NNE 22:32:18 45° NNE
Cosmos 2100 Rocket 4.5 22:28:37 12° SSW 22:34:19 59° W 22:40:37 10° N
Lacrosse 5 3.2 22:30:36 10° W 22:35:16 36° NNW 22:37:28 25° NNE
SPOT 5 3.5 22:37:51 59° N 22:37:51 59° N 22:42:12 10° NNW
Tsikada Rocket 4.2 22:32:33 10° N 22:37:47 59° NNE 22:37:47 59° NNE
Meteor 2-17 Rocket 4.4 22:39:40 80° WSW 22:39:53 81° W 22:46:05 10° N
SL-08 R/B 4.4 22:42:04 83° N 22:42:04 83° N 22:48:14 10° N
ARGOS 3.7 22:48:14 52° NNW 22:48:14 52° NNW 22:52:14 10° NNW
CZ-3B DEB 3.6 22:46:22 10° W 22:52:55 28° NNW 22:54:17 25° N
Terra 4.1 23:13:03 18° N 23:13:03 18° N 23:14:18 10° N
H-2A R/B 3.7 23:26:32 31° NNW 23:26:32 31° NNW 23:29:19 10° NNW
USA 215 4.3 23:20:01 10° NE 23:26:02 41° NNW 23:32:02 10° W
